Weather History for Guatemala Aeropuertola Aurora, Guatemala

Change the Weather History Date:

Saturday, January 4, 2014

  Actual Average Record
Temperature  
Mean Temperature 65 °F -  
Max Temperature 76 °F 72 °F - ()
Min Temperature 54 °F 54 °F - ()
Growing Degree Days 15 (Base 50)    
Moisture  
Dew Point 54 °F    
Average Humidity 71    
Maximum Humidity 94    
Minimum Humidity 41    
Precipitation  
Precipitation 0.00 in - - ()
Sea Level Pressure  
Sea Level Pressure 30.22 in    
Wind  
Wind Speed 12 mph ()    
Max Wind Speed 16 mph    
Max Gust Speed -    
Visibility 6.2 miles    
Events      
T = Trace of Precipitation, MM = Missing Value Source: Averaged Metar Reports

Daily Weather History Graph

Daily Weather History Graph

Search for Another Location

Airport:

Trip Planner

Search our weather history database for the weather conditions in past years. The results will help you decide how hot, cold, wet, or windy it might be!

Date:

Astronomy

Jan. 04, 2014 Rise Set
Actual Time 6:28 AM CST 5:46 PM CST
Civil Twilight 6:05 AM CST 6:09 PM CST
Nautical Twilight 5:38 AM CST 6:35 PM CST
Astronomical Twilight 5:12 AM CST 7:02 PM CST
Moon 9:11 AM CST (1/4) 9:23 PM CST (1/4)
Length of Visible Light 12h 04m
Length of Day
11h 17m
Waxing Crescent, 15% of the Moon is Illuminated
Jan 4
Waxing Crescent
Jan 7
First Quarter
Jan 15
Full
Jan 23
Last Quarter
Jan 30
New

Hourly Weather History & Observations

Time (CST) Temp. Dew Point Humidity Pressure Visibility Wind Dir Wind Speed Gust Speed Precip Events Conditions
12:00 AM 59.0 °F 53.6 °F 82% 30.27 in 6.2 mi NNE 13.8 mph - N/A   Partly Cloudy
1:00 AM 59.0 °F 53.6 °F 82% 30.27 in - NNE 11.5 mph - N/A   Clear
2:00 AM 59.0 °F 53.6 °F 82% 30.24 in - NNE 13.8 mph - N/A   Clear
3:00 AM 57.2 °F 53.6 °F 88% 30.24 in - NNE 11.5 mph - N/A   Clear
4:00 AM 57.2 °F 53.6 °F 88% 30.24 in - North 13.8 mph - N/A   Clear
5:00 AM 55.4 °F 51.8 °F 88% 30.24 in - North 11.5 mph - N/A   Clear
6:00 AM 56 °F 52 °F 83% 30.00 in 25 mi North 9.2 mph - -  
6:00 AM 55.4 °F 51.8 °F 88% 30.24 in - North 9.2 mph - N/A   Clear
7:00 AM 55.4 °F 53.6 °F 94% 30.27 in - NNE 11.5 mph - N/A   Clear
8:00 AM 59.0 °F 55.4 °F 88% 30.30 in - North 16.1 mph - N/A   Clear
9:00 AM 62.6 °F 53.6 °F 72% 30.33 in - North 16.1 mph - N/A   Clear
10:00 AM 69.8 °F 53.6 °F 56% 30.30 in 6.2 mi North 13.8 mph - N/A   Partly Cloudy
11:00 AM 69.8 °F 53.6 °F 56% 30.30 in 6.2 mi North 13.8 mph - N/A   Partly Cloudy
12:00 PM 72 °F 53 °F 41% 29.95 in 25 mi North 13.8 mph - -   Scattered Clouds
12:00 PM 71.6 °F 53.6 °F 53% 30.27 in 6.2 mi North 13.8 mph - N/A   Partly Cloudy
1:00 PM 71.6 °F 55.4 °F 57% 30.24 in 6.2 mi North 16.1 mph - N/A   Scattered Clouds
2:00 PM 73.4 °F 55.4 °F 53% 30.21 in 6.2 mi North 16.1 mph - N/A   Scattered Clouds
3:00 PM 73.4 °F 55.4 °F 53% 30.18 in 6.2 mi NNE 16.1 mph - N/A   Mostly Cloudy
4:00 PM 71.6 °F 57.2 °F 60% 30.18 in 6.2 mi North 16.1 mph - N/A   Scattered Clouds
5:00 PM 71.6 °F 51.8 °F 50% 30.18 in 6.2 mi North 16.1 mph - N/A   Partly Cloudy
6:00 PM 67 °F 52 °F 49% 29.95 in 25 mi North 13.8 mph - -   Scattered Clouds
6:00 PM 66.2 °F 51.8 °F 60% 30.21 in 6.2 mi North 13.8 mph - N/A   Partly Cloudy
6:35 PM - - N/A% - 6.2 mi North 13.8 mph - N/A   Scattered Clouds
7:00 PM 64.4 °F 53.6 °F 68% 30.24 in 6.2 mi North 13.8 mph - N/A   Scattered Clouds
8:00 PM 62.6 °F 53.6 °F 72% 30.27 in 6.2 mi North 13.8 mph - N/A   Partly Cloudy
9:00 PM 60.8 °F 55.4 °F 82% 30.27 in 6.2 mi North 11.5 mph - N/A   Partly Cloudy
9:25 PM - - N/A% - 6.2 mi North 13.8 mph - N/A   Scattered Clouds
10:00 PM 59.0 °F 55.4 °F 88% 30.27 in 6.2 mi North 13.8 mph - N/A   Scattered Clouds
11:00 PM 59.0 °F 55.4 °F 88% 30.27 in 6.2 mi North 13.8 mph - N/A   Scattered Clouds